SCP
0 0 0 0 0 1 1 1 1 1 1 1 1 0 0 0 0 0 0 0 0 0
0 0 0 1 1 2 2 1 0 0 0 0 0 0 0 0 0 0 0 0 0 0
0 0 0 1 2 2 2 1 0 0 0 0 0 0 0 0 0 0 0 0 0 0
0 0 0 1 1 2 1 1 1 0 0 0 0 0 0 0 0 0 0 0 0 0
0 0 0 1 1 2 1 1 1 0 0 0 0 0 0 0 0 0 0 0 0 0
0 0 0 1 1 2 1 1 0 0 0 0 0 0 0 0 0 0 0 0 0 0
0 0 1 1 1 1 1 0 0 0 0 0 0 0 0 0 0 0 0 0 0 0
0 0 0 1 0 0 0 0 0 0 0 0 0 0 0 0 0 0 0 0 0 0
0 0 0 0 0 0 0 0 0 0 0 0 0 0 -0 0 0 0 0 0 0 0
0 0 0 0 0 0 0 0 0 0 0 0 0 0 0 0 0 0 0 0 0 0
0 0 0 0 0 0 0 0 0 0 0 0 0 0 0 0 0 0 0 0 0 0
0 0 0 0 0 0 0 0 0 0 0 0 0 0 0 0 0 0 0 0 0 0
0 -0 0 0 0 0 0 0 0 0 0 -0 0 0 0 0 0 0 0 0 0 0
0 0 0 0 0 0 0 0 0 0 0 0 0 0 0 0 0 0 0 0 0 0
Wind_Speed_500mb
85 88 84 82 95 97 95 86 76 90 93 88 78 74 61 72 73 67 60 55 51 46
71 84 90 83 88 93 97 79 70 74 78 86 71 63 91 77 78 72 62 55 46 46
67 70 76 78 84 90 87 65 68 69 70 73 77 79 88 89 83 73 63 53 48 41
57 56 53 72 82 89 73 63 66 69 62 65 93 83 75 91 83 73 60 52 42 34
53 54 61 66 81 66 61 58 61 64 67 66 86 91 88 94 82 67 60 48 39 35
48 47 61 57 61 59 48 51 55 60 60 63 94 89 109 94 75 61 52 45 38 28
38 36 52 39 39 45 39 48 55 56 61 76 74 113 93 71 60 59 53 43 32 22
29 33 38 43 44 42 44 51 54 55 69 73 93 86 77 65 67 62 52 41 29 22
24 37 43 43 39 45 56 62 64 70 68 75 92 87 70 77 72 55 39 30 29 27
27 38 38 44 50 59 72 72 65 78 85 84 85 76 77 69 62 51 39 33 31 26
24 40 44 53 59 70 74 77 76 78 87 89 76 72 61 56 54 48 42 37 30 23
37 48 61 69 78 85 90 94 101 91 83 67 61 61 59 55 54 56 52 43 34 25
56 72 75 76 82 90 97 102 95 92 80 76 69 59 61 57 58 61 55 45 37 28
55 77 86 88 85 92 95 100 95 90 84 78 73 67 56 50 53 52 50 44 37 34
Wind_Direction_500mb
256 256 255 249 242 245 247 249 256 245 236 235 237 224 234 232 227 231 234 239 234 235
261 261 248 246 240 242 248 249 252 240 234 229 229 227 234 235 224 225 228 224 223 225
271 268 245 239 236 238 244 248 246 241 234 231 221 224 228 229 221 223 218 216 218 219
277 261 245 238 231 235 240 240 238 240 239 224 216 212 213 200 219 214 209 206 207 211
289 261 240 237 230 228 234 244 235 229 237 225 220 213 219 209 203 197 197 196 201 204
288 249 232 233 230 221 226 238 230 227 232 220 209 210 194 198 186 187 192 191 191 191
289 242 225 220 203 212 220 220 220 222 225 215 210 185 178 178 186 180 177 173 173 174
264 219 182 181 187 201 206 212 209 213 212 213 199 183 166 180 176 171 165 156 156 156
229 195 190 195 206 201 196 203 195 195 199 188 174 165 170 172 164 153 149 155 150 153
221 193 194 196 191 188 191 194 190 179 175 171 153 158 145 151 147 147 139 142 148 143
203 184 186 183 182 176 178 179 176 168 154 146 141 129 143 147 131 124 133 141 137 140
171 162 159 160 161 161 160 156 150 147 143 138 125 138 137 127 123 132 133 133 128 125
158 153 149 150 152 150 148 140 139 127 127 130 132 129 113 115 139 134 130 122 117 110
142 146 145 145 146 143 134 128 122 122 122 120 117 108 118 139 142 131 125 118 104 88
Wind_Speed_850mb
85 88 84 82 95 97 95 86 76 90 93 88 78 74 61 72 73 67 60 55 51 46
71 84 90 83 88 93 97 79 70 74 78 86 71 63 91 77 78 72 62 55 46 46
67 70 76 78 84 90 87 65 68 69 70 73 77 79 88 89 83 73 63 53 48 41
57 56 53 72 82 89 73 63 66 69 62 65 93 83 75 91 83 73 60 52 42 34
53 54 61 66 81 66 61 58 61 64 67 66 86 91 88 94 82 67 60 48 39 35
48 47 61 57 61 59 48 51 55 60 60 63 94 89 109 94 75 61 52 45 38 28
38 36 52 39 39 45 39 48 55 56 61 76 74 113 93 71 60 59 53 43 32 22
29 33 38 43 44 42 44 51 54 55 69 73 93 86 77 65 67 62 52 41 29 22
24 37 43 43 39 45 56 62 64 70 68 75 92 87 70 77 72 55 39 30 29 27
27 38 38 44 50 59 72 72 65 78 85 84 85 76 77 69 62 51 39 33 31 26
24 40 44 53 59 70 74 77 76 78 87 89 76 72 61 56 54 48 42 37 30 23
37 48 61 69 78 85 90 94 101 91 83 67 61 61 59 55 54 56 52 43 34 25
56 72 75 76 82 90 97 102 95 92 80 76 69 59 61 57 58 61 55 45 37 28
55 77 86 88 85 92 95 100 95 90 84 78 73 67 56 50 53 52 50 44 37 34
Wind_Direction_850mb
256 256 255 249 242 245 247 249 256 245 236 235 237 224 234 232 227 231 234 239 234 235
261 261 248 246 240 242 248 249 252 240 234 229 229 227 234 235 224 225 228 224 223 225
271 268 245 239 236 238 244 248 246 241 234 231 221 224 228 229 221 223 218 216 218 219
277 261 245 238 231 235 240 240 238 240 239 224 216 212 213 200 219 214 209 206 207 211
289 261 240 237 230 228 234 244 235 229 237 225 220 213 219 209 203 197 197 196 201 204
288 249 232 233 230 221 226 238 230 227 232 220 209 210 194 198 186 187 192 191 191 191
289 242 225 220 203 212 220 220 220 222 225 215 210 185 178 178 186 180 177 173 173 174
264 219 182 181 187 201 206 212 209 213 212 213 199 183 166 180 176 171 165 156 156 156
229 195 190 195 206 201 196 203 195 195 199 188 174 165 170 172 164 153 149 155 150 153
221 193 194 196 191 188 191 194 190 179 175 171 153 158 145 151 147 147 139 142 148 143
203 184 186 183 182 176 178 179 176 168 154 146 141 129 143 147 131 124 133 141 137 140
171 162 159 160 161 161 160 156 150 147 143 138 125 138 137 127 123 132 133 133 128 125
158 153 149 150 152 150 148 140 139 127 127 130 132 129 113 115 139 134 130 122 117 110
142 146 145 145 146 143 134 128 122 122 122 120 117 108 118 139 142 131 125 118 104 88